Location: Arcueil
(48.7999°N, 2.3326°E)
Time: 21:00:26
(UTC+00:00)

EO-79 - Pass Details

Date: 25 June 2024
Orbit: 555 x 577 km, 98.0° (Epoch: 18 July)

Event Time Altitude Azimuth Distance (km) Brightness Sun altitude
Rises 02:36:28 0° 22° (NNE) 2,755 ? -9.2°
Reaches altitude 10° 02:38:48 10° 33° (NNE) 1,852 ? -8.9°
Maximum altitude 02:42:23 31° 97° (E) 987 ? -8.6°
Drops below altitude 10° 02:45:57 10° 160° (SSE) 1,835 ? -8.2°
Sets 02:48:14 0° 171° (S) 2,725 ? -8.0°
